Regional Weather Roundup
Issued by NWS

Home | Current Version | Previous Version | Text Only | Print | Product List | Glossary Off
Versions: 1 2 3 4 5 6 7 8 9 10 11 12 13 14 15 16 17 18 19 20 21 22 23 24 25 26 27 28 29 30 31 32 33 34 35 36 37 38 39 40 41 42 43 44 45 46 47 48 49 50

000
ASUS43 KDMX 010703
RWRIA

WEATHER ROUNDUP FOR IOWA
NATIONAL WEATHER SERVICE DES MOINES IA
200 AM CDT WED JUN 01 2016

NOTE: "FAIR" INDICATES FEW OR NO CLOUDS BELOW 12,000 FEET WITH NO
SIGNIFICANT WEATHER AND/OR OBSTRUCTIONS TO VISIBILITY.

* - THESE STATIONS ARE NOT NWS STATIONS...THUS NOT UNDER NWS
QUALITY CONTROL.  THEY ALSO DO NOT REPORT WEATHER SUCH
AS PRECIPITATION OR FOG.

IAZ001>003-012>014-020>022-031>034-043>046-010800-
   NORTHWEST IOWA

CITY           SKY/WX    TMP DP  RH WIND       PRES   REMARKS
CARROLL *      PTCLDY    63  50  63 SW8       29.93F
CHEROKEE *     CLEAR     59  52  77 W8        29.96S
DENISON *      CLEAR     57  54  88 NW8G21    29.96R
LE MARS *      PTCLDY    59  50  72 VRB3      29.98S
ORANGE CITY *  PTCLDY    57  52  82 W10       29.96F
SHELDON *      CLEAR     59  50  72 W13       29.94S
SIOUX CITY     PTCLDY    60  49  66 NW9       29.98S
SPENCER        CLEAR     58  50  75 W13       29.93F
STORM LAKE *   CLEAR     57  50  77 W12       29.96S
$$

IAZ055>058-069>071-079>083-090>094-010800-
   SOUTHWEST IOWA

CITY           SKY/WX    TMP DP  RH WIND       PRES   REMARKS
ATLANTIC *     CLEAR     59  57  94 CALM      29.95F
AUDUBON *      CLEAR     55  54  94 W6        29.96F
CLARINDA *       N/A     59  59 100 MISG      29.97F
COUNCIL BLFS * CLEAR     61  57  88 SW6       29.96F
CRESTON *      FOG       61  61 100 W6        29.97F VSB<1/4
HARLAN  *      CLEAR     57  55  94 CALM      29.99F
LAMONI         CLEAR     60  60 100 W5        29.95F
RED OAK *      CLEAR     59  57  94 CALM      29.96F
SHENANDOAH *   CLEAR     61  59  94 CALM      29.96F
$$

IAZ047>049-059>061-072>074-084-010800-
   CENTRAL IOWA

CITY           SKY/WX    TMP DP  RH WIND       PRES   REMARKS
AMES           CLEAR     60  59  96 SW6       29.92F FOG
ANKENY *       FOG       59  59 100 CALM      29.93S VSB 1/4
BOONE *        CLEAR     59  59 100 W6        29.92F
CHARITON *     CLEAR     61  61 100 W5        29.94F FOG
DES MOINES     CLEAR     63  60  90 S3        29.93S
GRINNELL*      FOG       61  59  94 SW5       29.94S VSB 1/2
KNOXVILLE *    FOG       61  61 100 SW3       29.93S VSB 1/4
MARSHALLTOWN   FOG       60  60 100 W3        29.92S VSB 1/4
NEWTON *       FOG       59  59 100 S5        29.93S VSB<1/4
PELLA *        CLEAR     63  62  98 CALM      29.94F FOG
PERRY *          N/A     61  57  88 W7        29.93F
$$

IAZ004>006-015-016-023>025-035-036-010800-
   NORTH CENTRAL IOWA

CITY           SKY/WX    TMP DP  RH WIND       PRES   REMARKS
ALGONA *       CLEAR     59  54  82 SW8       29.90F
CLARION *      CLEAR     57  57 100 S7        29.92S
ESTHERVILLE    CLEAR     58  51  78 W14       29.91S
FORT DODGE *   CLEAR     54  48  82 CALM      29.90F
MASON CITY     CLEAR     58  55  90 SW9       29.92S
FOREST CITY *  CLEAR     52  52 100 S3        29.90F FOG
WEBSTER CITY * CLEAR     59  57  94 SW8       29.90S
IOWA FALLS *     N/A     61  59  94 S3        29.93S
$$

IAZ007>011-017>019-026>030-037>042-050>054-066-010800-
   NORTHEAST IOWA

CITY           SKY/WX    TMP DP  RH WIND       PRES   REMARKS
CEDAR RAPIDS   CLOUDY    63  63 100 SW3       29.91S
CHARLES CITY * FOG       61  61 100 S6        29.92S VSB 0
CLINTON *      LGT RAIN  63  62  97 E5        29.93F
DECORAH *      CLOUDY    63  63 100 CALM      29.91S FOG
DUBUQUE        LGT RAIN  63  62  97 CALM      29.92F
MONTICELLO *   CLOUDY    64  63  94 CALM      29.91F
OELWEIN *      FOG       63 N/A N/A CALM      29.92F VSB 1/4
WATERLOO       FOG       61  60  97 W3        29.91S VSB 1/4
$$

IAZ064-065-067-068-078-010800-
   EAST CENTRAL IOWA

CITY           SKY/WX    TMP DP  RH WIND       PRES   REMARKS
DAVENPORT      CLOUDY    64  62  93 SE9       29.93R
IOWA CITY      CLOUDY    64  63  96 W3        29.93S
MT. PLEASANT * CLOUDY    66  66 100 CALM      29.92F
MUSCATINE *    CLOUDY    64  63  94 CALM      29.92R
QUAD CITIES    CLOUDY    65  62  90 CALM      29.92S
$$

IAZ062-063-075>077-085>089-095>099-010800-
   SOUTHEAST IOWA

CITY           SKY/WX    TMP DP  RH WIND       PRES   REMARKS
BURLINGTON     PTCLDY    65  65 100 SE5       29.92F
FAIRFIELD *      N/A    N/A N/A N/A MISG        N/A
FORT MADISON * CLOUDY    64  64 100 E7        29.93S
KEOKUK *       CLOUDY    66  64  94 CALM      29.91F
OSKALOOSA *      N/A     63  61  94 NW7       29.93F
OTTUMWA        CLOUDY    62  61  96 CALM      29.93S
WASHINGTON *   CLEAR     63 N/A N/A CALM      29.93S
$$

ABBREVIATIONS USED IN REMARKS
   TC - TEMPERATURES IN CELSIUS
  WCI - WIND CHILL INDEX
   HX - HEAT INDEX
  VSB - VISIBILITY
$$




USA.gov is the U.S. government's official web portal to all federal, state and local government web resources and services.